Location: Clyde
(45.1830°S, 169.3170°E)
Time: 07:51:32
(UTC+12:00)

SJ 16-02 - Pass Details

Date: 14 May 2021
Orbit: 606 x 616 km, 75.0° (Epoch: 18 June)

Event Time Altitude Azimuth Distance (km) Brightness Sun altitude
Rises 18:59:51 0° 193° (SSW) 2,912 4.9 -16.7°
Reaches altitude 10° 19:02:16 10° 184° (S) 2,001 3.9 -17.1°
Maximum altitude 19:06:24 36° 117° (ESE) 992 1.9 -17.9°
Enters shadow 19:06:30 36° 114° (ESE) 993 1.9 -17.9°
